Location: Newark
(16.3678°N, 77.8722°E)
Time: 04:31:36
(UTC+00:00)

S-56A Canister/Altair - Pass Details

Date: 10 December 2019
Orbit: 634 x 2498 km, 38.9° (Epoch: 22 January)

Event Time Altitude Azimuth Distance (km) Brightness Sun altitude
Rises 03:50:44 0° 244° (WSW) 5,116 11.5 32.8°
Reaches altitude 10° 03:53:47 10° 247° (WSW) 4,337 11.2 33.3°
Maximum altitude 04:06:14 64° 327° (NNW) 2,550 10.4 35.5°
Drops below altitude 10° 04:21:20 10° 47° (NE) 5,138 11.8 38.0°
Sets 04:25:21 0° 50° (NE) 6,079 12.1 38.6°
